Temp
-15 -15 -16 -16 -16 -16 -16 -16 -16 -16 -16 -16 -16 -16 -16 -16 -16 -16 -16 -16 -16 -16 -16 -16 -16 -16 -16 -16 -16 -16 -16 -16 -16 -16 -15 -15 -15 -15 -15 -15 -15 -15
-16 -16 -16 -16 -16 -16 -16 -16 -16 -16 -16 -16 -16 -16 -16 -16 -16 -16 -16 -16 -16 -16 -16 -16 -16 -16 -16 -16 -16 -16 -16 -16 -16 -16 -16 -16 -16 -16 -16 -16 -16 -16
-16 -16 -16 -16 -16 -16 -16 -16 -16 -16 -16 -16 -16 -16 -16 -16 -16 -16 -16 -16 -16 -16 -16 -16 -16 -16 -16 -16 -16 -16 -16 -16 -16 -16 -16 -16 -16 -16 -16 -16 -16 -16
-16 -16 -16 -16 -16 -16 -16 -16 -16 -16 -16 -16 -16 -16 -16 -16 -16 -16 -16 -16 -16 -16 -16 -16 -16 -16 -16 -16 -16 -17 -17 -17 -17 -17 -17 -17 -16 -16 -16 -16 -16 -16
-16 -16 -16 -16 -16 -16 -16 -16 -16 -16 -16 -16 -16 -16 -16 -16 -16 -16 -16 -16 -16 -16 -16 -16 -16 -16 -16 -16 -16 -17 -17 -17 -17 -17 -17 -17 -17 -17 -17 -17 -16 -16
-16 -16 -16 -16 -16 -16 -16 -16 -16 -16 -16 -16 -16 -16 -16 -16 -16 -16 -16 -16 -16 -16 -16 -16 -16 -16 -17 -17 -17 -17 -17 -17 -17 -17 -17 -17 -17 -17 -17 -17 -17 -17
-17 -17 -17 -17 -17 -17 -16 -17 -17 -17 -17 -16 -16 -16 -16 -16 -16 -16 -16 -16 -17 -17 -17 -17 -17 -17 -17 -17 -17 -17 -17 -17 -17 -17 -17 -17 -17 -17 -17 -17 -17 -17
-17 -17 -17 -17 -17 -17 -17 -17 -17 -17 -17 -17 -17 -17 -16 -16 -16 -17 -17 -17 -17 -17 -17 -17 -17 -17 -17 -17 -17 -17 -17 -17 -17 -17 -17 -17 -17 -17 -17 -17 -17 -17
-17 -17 -17 -17 -17 -17 -17 -17 -17 -17 -17 -17 -17 -17 -17 -16 -17 -17 -17 -17 -17 -17 -17 -17 -17 -17 -17 -17 -17 -17 -17 -17 -17 -17 -17 -17 -17 -17 -17 -17 -17 -18
-17 -17 -17 -17 -17 -17 -17 -17 -17 -17 -17 -17 -17 -17 -17 -17 -17 -17 -17 -17 -17 -17 -17 -17 -17 -17 -17 -17 -17 -17 -17 -17 -17 -17 -17 -17 -17 -17 -18 -18 -18 -18
-18 -17 -17 -17 -17 -17 -17 -17 -17 -17 -17 -17 -17 -17 -17 -17 -17 -17 -17 -17 -17 -17 -17 -17 -17 -17 -17 -17 -17 -17 -17 -17 -17 -17 -18 -18 -18 -18 -18 -18 -18 -18
-18 -18 -18 -17 -17 -17 -17 -17 -17 -17 -17 -17 -17 -17 -17 -17 -17 -17 -17 -17 -17 -17 -17 -17 -17 -17 -17 -17 -17 -17 -18 -18 -18 -18 -18 -18 -18 -18 -18 -18 -18 -18
-18 -18 -18 -18 -18 -17 -17 -17 -17 -17 -17 -17 -17 -17 -17 -17 -17 -17 -17 -17 -17 -17 -17 -17 -17 -17 -17 -17 -17 -17 -18 -18 -18 -18 -18 -18 -18 -18 -18 -18 -18 -18
-18 -18 -18 -18 -18 -18 -18 -18 -18 -18 -18 -18 -17 -17 -17 -17 -17 -17 -17 -17 -17 -17 -17 -17 -17 -17 -17 -17 -17 -17 -18 -18 -18 -18 -18 -18 -18 -18 -18 -18 -18 -18
-18 -18 -18 -18 -18 -18 -18 -18 -18 -18 -18 -18 -18 -17 -17 -17 -17 -17 -17 -17 -17 -17 -17 -17 -17 -17 -17 -17 -17 -17 -18 -18 -18 -18 -18 -18 -18 -18 -18 -18 -18 -18
-18 -18 -18 -18 -18 -18 -18 -18 -18 -18 -18 -18 -18 -18 -18 -18 -18 -18 -18 -17 -17 -17 -17 -17 -17 -17 -17 -17 -17 -18 -18 -18 -18 -18 -18 -18 -18 -18 -18 -18 -18 -18
-18 -18 -18 -18 -18 -18 -18 -18 -18 -18 -18 -18 -18 -18 -18 -18 -18 -18 -18 -18 -18 -18 -18 -18 -18 -18 -18 -18 -18 -18 -18 -18 -19 -19 -19 -19 -18 -18 -18 -18 -18 -18
-18 -18 -18 -18 -18 -18 -18 -18 -18 -18 -18 -18 -18 -18 -18 -18 -18 -18 -18 -18 -18 -18 -18 -18 -18 -18 -19 -18 -18 -19 -19 -19 -19 -19 -19 -19 -19 -19 -18 -18 -18 -18
-19 -19 -19 -19 -19 -19 -19 -19 -19 -19 -18 -18 -18 -18 -18 -18 -18 -18 -19 -19 -19 -19 -19 -19 -19 -19 -19 -19 -19 -19 -19 -19 -19 -19 -19 -19 -19 -19 -19 -19 -19 -19
-19 -19 -19 -19 -19 -19 -19 -19 -19 -19 -19 -19 -19 -18 -18 -18 -18 -18 -19 -19 -19 -19 -19 -19 -19 -19 -19 -19 -19 -19 -19 -19 -19 -19 -19 -19 -19 -19 -19 -19 -19 -19
-19 -19 -19 -19 -19 -19 -19 -19 -19 -19 -19 -19 -19 -19 -19 -19 -18 -18 -19 -19 -19 -19 -20 -20 -19 -20 -20 -20 -20 -20 -20 -20 -20 -20 -19 -19 -19 -20 -20 -20 -20 -20
-19 -19 -20 -20 -20 -20 -20 -20 -20 -20 -20 -19 -19 -19 -19 -19 -19 -19 -19 -19 -19 -19 -20 -20 -20 -20 -20 -20 -20 -20 -20 -20 -20 -20 -20 -20 -20 -20 -20 -20 -20 -20
-20 -20 -20 -20 -20 -20 -20 -20 -20 -20 -20 -20 -20 -20 -20 -20 -20 -19 -19 -19 -19 -19 -20 -20 -20 -20 -20 -20 -20 -20 -20 -20 -20 -20 -20 -20 -20 -20 -21 -21 -21 -21
-20 -20 -20 -20 -20 -20 -20 -20 -20 -20 -20 -20 -20 -20 -20 -20 -20 -20 -19 -19 -19 -20 -20 -20 -20 -21 -21 -20 -20 -20 -20 -20 -20 -20 -20 -20 -21 -21 -21 -21 -21 -21
-21 -21 -21 -21 -21 -21 -21 -21 -21 -21 -21 -21 -21 -21 -21 -21 -21 -20 -20 -20 -20 -20 -20 -20 -21 -21 -21 -21 -21 -21 -21 -21 -21 -21 -21 -21 -21 -21 -21 -21 -21 -21
-21 -21 -21 -21 -21 -21 -21 -21 -21 -21 -21 -21 -21 -21 -21 -21 -21 -21 -21 -21 -21 -21 -21 -21 -21 -21 -21 -21 -21 -21 -21 -21 -21 -21 -21 -21 -21 -21 -21 -21 -21 -21
Height
5763 5764 5765 5765 5766 5766 5766 5765 5765 5766 5766 5766 5766 5766 5766 5766 5767 5767 5767 5767 5767 5767 5767 5766 5766 5766 5766 5767 5767 5767 5767 5768 5768 5768 5768 5769 5769 5769 5769 5769 5769 5769
5761 5761 5763 5763 5764 5764 5763 5763 5763 5764 5764 5764 5764 5764 5764 5765 5765 5765 5765 5766 5766 5766 5765 5765 5765 5765 5765 5765 5765 5766 5766 5766 5766 5766 5767 5767 5767 5767 5767 5767 5767 5767
5759 5760 5761 5761 5762 5762 5761 5761 5761 5762 5762 5761 5762 5762 5762 5763 5763 5763 5764 5764 5764 5764 5764 5764 5764 5764 5764 5764 5764 5764 5764 5764 5765 5765 5765 5765 5765 5765 5765 5765 5765 5765
5757 5758 5759 5760 5760 5760 5760 5760 5760 5760 5759 5759 5759 5760 5760 5761 5761 5762 5762 5762 5762 5763 5763 5763 5762 5762 5762 5762 5762 5762 5762 5762 5762 5763 5763 5763 5763 5764 5764 5764 5764 5763
5756 5757 5758 5758 5758 5758 5758 5758 5758 5758 5757 5757 5757 5758 5758 5759 5760 5760 5760 5760 5761 5761 5760 5760 5760 5760 5760 5760 5760 5760 5760 5760 5760 5760 5761 5761 5761 5762 5762 5762 5762 5762
5754 5755 5756 5756 5757 5757 5756 5756 5756 5755 5755 5756 5756 5756 5757 5757 5758 5759 5759 5759 5759 5758 5758 5758 5758 5758 5758 5758 5758 5758 5758 5758 5758 5758 5758 5759 5759 5759 5759 5760 5760 5760
5752 5752 5753 5754 5754 5754 5754 5754 5754 5753 5753 5754 5754 5755 5755 5756 5756 5757 5757 5757 5757 5757 5757 5756 5756 5756 5756 5756 5756 5756 5756 5756 5756 5756 5757 5757 5757 5757 5757 5757 5757 5757
5749 5750 5750 5751 5751 5752 5752 5752 5752 5752 5752 5752 5753 5753 5754 5754 5754 5755 5755 5755 5755 5755 5755 5754 5754 5754 5754 5754 5754 5754 5754 5754 5754 5755 5755 5755 5755 5755 5755 5754 5754 5754
5747 5748 5748 5748 5749 5749 5749 5749 5749 5750 5750 5750 5751 5751 5751 5752 5752 5752 5752 5753 5753 5753 5752 5752 5752 5752 5752 5752 5751 5751 5751 5752 5752 5752 5753 5753 5753 5753 5753 5753 5752 5752
5745 5746 5746 5746 5746 5747 5747 5747 5747 5747 5748 5748 5749 5749 5749 5749 5749 5749 5750 5750 5750 5750 5750 5750 5750 5750 5749 5749 5749 5749 5749 5749 5750 5750 5750 5751 5751 5751 5751 5751 5751 5751
5743 5744 5744 5744 5744 5744 5744 5744 5745 5745 5746 5746 5746 5747 5747 5747 5747 5747 5747 5747 5748 5748 5748 5748 5748 5747 5747 5747 5747 5747 5747 5747 5747 5747 5748 5748 5748 5748 5748 5748 5748 5748
5741 5741 5741 5741 5741 5741 5742 5742 5743 5743 5743 5744 5744 5745 5745 5745 5745 5744 5744 5745 5745 5746 5746 5746 5745 5745 5745 5744 5744 5744 5744 5744 5744 5744 5745 5745 5745 5745 5745 5745 5745 5745
5737 5738 5738 5738 5739 5739 5740 5740 5741 5741 5741 5741 5742 5742 5742 5742 5742 5742 5742 5742 5742 5742 5743 5743 5742 5742 5742 5742 5741 5741 5741 5741 5741 5741 5741 5741 5742 5742 5742 5742 5742 5742
5733 5734 5735 5736 5736 5737 5737 5738 5738 5738 5738 5738 5739 5739 5739 5739 5739 5739 5739 5739 5739 5738 5738 5738 5739 5738 5739 5739 5739 5738 5738 5738 5738 5738 5738 5738 5738 5738 5739 5739 5739 5739
5730 5731 5732 5732 5733 5733 5734 5734 5734 5735 5735 5735 5735 5736 5736 5735 5735 5735 5735 5735 5734 5734 5734 5734 5734 5734 5735 5735 5735 5735 5735 5735 5735 5734 5734 5734 5734 5734 5734 5735 5735 5735
5725 5726 5727 5728 5729 5729 5730 5730 5731 5731 5731 5731 5731 5731 5731 5731 5731 5731 5730 5730 5730 5729 5729 5729 5729 5730 5730 5730 5731 5731 5731 5731 5731 5731 5730 5730 5730 5730 5730 5730 5730 5730
5720 5721 5722 5723 5724 5724 5725 5725 5726 5726 5726 5726 5726 5726 5726 5726 5726 5725 5725 5725 5724 5724 5724 5724 5724 5724 5724 5725 5726 5726 5726 5726 5726 5726 5726 5726 5725 5725 5726 5726 5725 5726
5715 5716 5717 5718 5718 5719 5719 5720 5720 5720 5721 5721 5721 5721 5721 5721 5720 5719 5719 5719 5719 5719 5720 5720 5719 5719 5719 5720 5720 5721 5721 5721 5721 5721 5721 5721 5721 5720 5720 5720 5720 5720
5710 5711 5711 5712 5713 5713 5714 5714 5714 5714 5714 5715 5716 5716 5716 5715 5715 5714 5714 5714 5714 5715 5715 5716 5715 5713 5714 5715 5715 5715 5716 5716 5716 5716 5716 5716 5715 5715 5715 5714 5714 5715
5704 5705 5705 5706 5706 5707 5707 5707 5707 5708 5708 5709 5710 5710 5710 5710 5710 5709 5709 5709 5709 5708 5709 5710 5709 5708 5709 5710 5710 5711 5711 5711 5711 5711 5711 5710 5710 5710 5710 5710 5710 5710
5698 5698 5698 5699 5699 5700 5701 5701 5701 5701 5702 5703 5704 5704 5705 5705 5705 5705 5704 5704 5703 5702 5703 5704 5703 5703 5704 5705 5705 5706 5706 5706 5706 5706 5706 5706 5706 5706 5706 5706 5706 5706
5690 5691 5691 5692 5693 5693 5694 5694 5695 5695 5696 5696 5697 5698 5699 5700 5700 5700 5700 5700 5699 5698 5697 5697 5697 5698 5699 5700 5700 5700 5701 5701 5701 5701 5701 5701 5701 5701 5701 5701 5701 5701
5683 5684 5684 5685 5686 5686 5687 5688 5688 5689 5689 5690 5691 5691 5692 5693 5694 5694 5694 5694 5694 5694 5693 5691 5691 5692 5693 5694 5694 5694 5695 5695 5695 5695 5696 5696 5696 5696 5696 5696 5696 5696
5677 5677 5677 5678 5679 5679 5680 5680 5681 5682 5682 5682 5683 5684 5685 5686 5686 5687 5687 5687 5687 5687 5687 5686 5686 5686 5687 5687 5688 5688 5688 5689 5689 5690 5690 5690 5691 5691 5691 5691 5691 5691
5670 5670 5670 5671 5671 5672 5673 5673 5674 5674 5675 5675 5676 5676 5677 5678 5679 5680 5680 5680 5680 5680 5680 5680 5680 5680 5681 5681 5682 5682 5683 5683 5684 5684 5685 5685 5686 5686 5686 5686 5686 5686
5661 5662 5662 5663 5663 5664 5665 5665 5666 5667 5667 5668 5668 5668 5669 5670 5671 5672 5673 5673 5673 5673 5673 5674 5674 5674 5675 5675 5676 5677 5677 5677 5678 5679 5679 5679 5680 5681 5681 5681 5681 5680
Wind_Speed
23 23 21 20 19 19 20 22 23 22 21 21 20 20 18 17 17 17 15 14 14 13 13 12 12 12 13 13 14 14 15 16 17 18 19 20 20 19 19 19 18 18
23 22 19 16 16 17 20 23 24 23 22 23 23 22 19 17 16 16 14 13 13 13 12 12 11 11 12 12 13 14 14 15 16 17 18 18 19 19 18 18 17 17
19 16 12 11 12 15 18 21 23 22 22 23 22 20 19 17 15 15 15 14 14 14 14 13 12 12 11 12 12 13 14 15 16 16 17 17 18 18 18 17 16 16
13 10 9 10 13 15 17 18 19 20 21 21 19 18 19 18 17 17 17 16 16 16 16 15 14 13 13 13 13 14 14 15 16 17 17 17 18 18 18 17 17 16
12 11 11 13 14 16 17 16 16 16 17 18 19 18 18 18 18 18 18 17 17 18 18 17 16 15 15 15 15 15 16 16 17 17 17 17 17 17 18 18 17 17
13 13 13 13 15 16 16 15 14 14 15 16 17 17 16 16 17 17 17 18 18 18 17 17 16 16 15 15 16 16 17 17 18 18 18 18 17 16 17 17 18 17
13 13 13 14 14 14 14 14 13 13 14 14 14 15 16 16 17 17 17 17 16 16 16 17 17 16 16 16 16 16 17 17 18 18 18 18 18 17 16 16 16 17
14 15 15 15 15 14 14 14 14 14 14 14 15 16 17 18 18 17 17 16 16 17 18 18 19 18 18 18 18 18 18 18 18 18 18 17 17 17 17 16 16 16
16 17 17 16 16 16 14 14 14 15 15 14 15 15 16 18 19 19 18 17 17 17 19 20 20 20 21 21 22 21 20 19 18 18 18 18 17 17 17 17 17 16
17 18 18 18 17 16 15 15 15 16 15 14 14 15 16 17 19 20 20 19 18 18 19 20 20 20 21 22 23 23 22 21 20 21 21 20 19 18 18 19 19 19
19 19 19 18 17 16 16 16 16 17 17 16 16 16 16 17 18 20 21 21 19 19 19 20 20 20 22 23 23 23 23 23 22 22 23 22 22 21 21 21 21 21
19 20 20 19 19 18 17 16 17 18 18 19 19 19 19 18 18 19 21 21 20 19 20 22 23 23 23 24 24 24 25 25 24 24 24 24 24 24 23 22 22 21
19 20 21 21 21 20 20 19 19 20 21 22 22 22 22 21 20 21 22 23 24 25 26 27 27 26 23 23 24 24 24 26 27 27 27 27 26 26 24 22 22 21
20 21 22 23 23 24 24 24 24 24 24 25 25 25 25 24 24 24 25 27 28 30 31 30 29 28 27 26 27 26 26 26 28 29 29 28 27 26 25 23 22 22
23 24 24 25 26 26 27 28 28 28 28 28 28 28 28 28 28 29 30 31 31 32 33 33 32 32 31 30 30 30 29 28 29 29 29 28 28 27 27 27 26 27
28 28 29 29 30 30 30 31 31 32 32 32 32 33 32 32 32 33 33 34 34 35 35 35 35 34 33 32 30 30 31 31 31 32 31 32 32 31 31 32 32 34
34 34 34 34 35 35 35 35 35 35 36 36 37 37 37 38 38 38 38 38 38 38 38 38 37 37 36 33 31 31 33 34 34 34 34 35 35 35 36 36 37 38
38 39 39 39 39 40 40 40 39 39 40 40 40 41 42 42 42 43 42 41 40 40 40 39 39 39 38 36 35 34 35 35 36 36 37 37 38 39 40 41 42 42
42 42 43 43 43 43 43 43 43 43 42 41 41 41 42 41 41 41 41 40 41 41 40 39 39 40 40 39 37 36 36 37 38 39 40 41 42 43 43 44 44 43
46 46 46 46 46 45 44 44 43 42 40 39 40 41 42 42 42 41 41 41 43 44 42 41 42 42 41 40 39 38 38 39 40 41 42 43 44 44 43 43 41 40
49 49 49 49 47 46 44 41 40 40 40 40 40 41 41 42 42 43 43 42 42 42 41 42 43 43 41 41 41 40 41 42 43 44 45 46 46 45 43 41 40 39
47 47 47 46 45 44 42 41 42 42 42 42 41 41 41 42 43 45 44 41 37 36 36 39 42 42 42 42 42 43 44 45 46 47 47 47 46 44 42 41 40 40
45 45 44 44 44 44 44 44 44 44 43 42 42 43 43 44 45 46 45 43 40 38 38 39 41 42 43 45 46 46 47 47 47 47 47 46 45 43 42 41 41 40
49 48 46 46 45 46 45 45 44 44 43 43 44 45 45 45 45 46 45 46 47 48 48 48 48 48 48 49 49 49 49 48 47 46 46 45 44 43 43 43 42 41
54 53 52 51 50 49 47 46 45 44 45 45 47 48 49 47 46 47 46 46 48 50 50 50 50 50 49 49 49 48 48 47 46 45 44 44 44 45 46 46 46 46
58 59 59 58 57 56 54 53 52 51 52 53 54 55 54 52 49 49 49 47 47 47 47 46 47 48 49 48 48 47 46 46 46 46 46 47 47 48 49 50 50 50
Wind_Direction
261 264 268 271 271 271 269 267 268 268 269 271 276 280 278 275 273 267 266 274 280 283 284 285 287 289 291 293 295 296 297 297 295 292 288 286 283 281 280 278 276 275
259 263 265 267 266 264 262 261 263 264 266 270 276 278 275 271 269 263 263 269 275 279 279 279 281 284 288 291 293 295 296 295 294 291 289 286 284 282 280 278 277 276
255 255 251 253 256 255 254 255 260 264 267 271 274 272 269 267 264 260 260 266 272 277 278 276 275 276 280 283 286 290 292 292 292 289 288 285 283 281 278 277 275 275
238 236 245 253 253 251 252 255 259 264 266 270 271 269 267 264 260 260 263 268 274 278 278 275 271 268 270 273 276 280 283 285 286 286 287 286 284 282 279 277 275 274
224 240 257 255 251 250 253 256 261 266 268 271 273 272 266 259 257 262 267 272 275 277 276 272 267 265 264 266 268 271 273 276 278 279 281 283 284 285 283 281 278 275
234 245 245 241 243 248 253 258 265 270 271 272 274 274 268 262 262 266 269 272 274 274 272 269 266 265 265 266 267 269 272 273 274 275 275 275 277 279 282 284 282 279
234 236 234 235 240 244 251 260 266 269 269 271 273 274 274 272 271 270 270 270 269 267 266 264 264 264 264 266 267 268 270 271 272 272 273 273 272 272 273 276 279 280
228 232 235 238 240 243 249 257 263 265 266 270 273 275 277 277 277 275 273 270 265 261 259 259 261 264 265 266 266 266 266 266 267 268 268 268 269 269 268 267 269 273
231 233 234 236 238 240 244 249 256 261 263 267 272 276 279 281 282 280 277 274 268 261 258 258 259 262 264 264 264 263 262 262 262 262 261 261 262 264 266 266 265 267
233 235 236 236 237 239 242 246 251 256 258 259 263 272 278 282 284 283 280 278 272 262 256 256 258 260 263 264 264 263 261 259 259 258 256 256 254 256 261 265 266 266
235 236 236 236 237 240 243 247 250 253 255 256 260 269 276 281 284 285 283 280 274 265 257 255 258 262 265 266 265 263 260 257 256 255 254 251 251 255 261 264 264 264
237 236 235 236 239 242 245 249 252 254 255 258 263 269 274 278 282 283 282 279 274 270 265 262 263 265 267 266 264 260 258 256 254 253 251 250 253 259 262 262 263 263
240 237 237 239 243 248 252 256 258 260 261 263 266 270 274 276 277 278 278 276 275 276 275 272 270 268 267 266 264 261 258 255 253 252 251 252 257 262 262 260 261 263
244 243 245 248 253 256 258 260 261 263 264 265 266 268 271 273 274 273 272 271 272 274 275 274 271 268 265 263 262 261 260 256 253 252 253 255 258 261 261 259 258 261
253 253 254 256 259 261 262 263 264 265 266 266 266 267 268 269 270 270 270 270 269 270 271 271 270 267 264 261 261 261 260 256 253 252 253 255 257 259 259 258 258 261
264 262 261 262 262 263 264 265 266 267 268 269 269 269 269 268 268 267 267 267 266 265 265 265 266 264 261 258 259 260 259 257 255 254 254 255 256 258 258 259 261 263
267 267 266 266 266 266 267 267 268 268 269 270 271 271 271 271 270 268 267 265 264 263 262 261 259 256 253 252 252 254 255 256 256 256 256 257 258 259 261 263 265 266
265 266 266 266 266 267 267 268 268 269 269 269 270 271 271 271 271 270 268 266 263 261 260 258 254 250 247 247 248 249 252 254 256 257 258 260 261 263 264 266 268 269
264 264 265 265 265 266 267 268 269 269 268 268 269 269 270 269 270 269 268 266 265 262 260 257 254 251 249 249 250 251 253 256 258 260 261 262 263 264 265 267 268 269
264 264 265 265 266 267 268 268 267 265 266 268 269 269 269 268 268 267 267 268 267 264 258 254 253 253 252 252 253 254 257 259 261 263 264 265 265 266 266 267 268 268
266 266 266 266 266 266 267 266 263 262 265 269 270 269 269 269 268 268 267 267 266 264 258 253 253 254 254 254 255 257 260 262 263 264 265 265 266 267 267 267 268 269
269 268 267 266 265 264 264 262 262 264 268 270 270 268 267 269 270 269 265 262 261 262 258 254 252 253 254 256 258 260 263 265 266 266 266 265 265 266 266 267 268 270
270 269 269 268 266 265 264 263 264 266 268 269 268 267 268 269 270 268 263 255 251 251 252 253 254 255 258 261 263 264 265 267 267 266 265 264 263 264 264 266 267 270
270 270 270 269 268 267 266 264 265 265 266 266 267 268 269 270 269 265 259 253 249 249 251 254 256 259 262 264 265 266 266 265 265 263 262 262 262 263 264 265 267 269
269 268 268 268 268 267 265 263 263 263 264 265 266 268 270 269 267 263 258 253 251 250 252 255 258 260 262 262 263 263 263 263 262 261 260 261 263 264 265 265 267 268
269 268 267 267 266 266 264 263 263 264 265 265 267 268 269 267 265 262 258 254 252 252 252 254 257 258 258 259 260 260 261 261 261 261 262 265 268 269 268 267 267 267